Regional Weather Roundup
Issued by NWS

Home | Current Version | Previous Version | Text Only | Print | Product List | Glossary On
Versions: 1 2 3 4 5 6 7 8 9 10 11 12 13 14 15 16 17 18 19 20 21 22 23 24 25 26 27 28 29 30 31 32 33 34 35 36 37 38 39 40 41 42 43 44 45 46 47 48 49 50
672
ASUS44 KLIX 211010
RWRLA
LOUISIANA WEATHER ROUNDUP
NATIONAL WEATHER SERVICE NEW ORLEANS LA
400 AM CST FRI NOV 21 2014

NOTE: "FAIR" INDICATES FEW OR NO CLOUDS BELOW 12,000 FEET WITH NO
      SIGNIFICANT WEATHER AND/OR OBSTRUCTIONS TO VISIBILITY.
      SKY/WX - SKY CONDITION AND SIGNIFICANT WEATHER.
      TMP - AIR TEMPERATURE.    DP   - DEWPOINT TEMPERATURE.
      RH  - RELATIVE HUMIDITY.  PRES - PRESSURE.
      HX  - HEAT INDEX.         WCI  - WIND CHILL INDEX.

*  THESE STATIONS ARE NOT NWS OR FAA STATIONS AND ARE NOT UNDER
   NWS QUALITY CONTROL.

LAZ040-048-061>063-065-066-069-211100-
SOUTHEAST LOUISIANA

CITY           SKY/WX    TMP DP  RH WIND       PRES   REMARKS
N.O. AUDUBON     N/A     50  47  88 MISG        N/A
N.O. INTL ARPT CLEAR     47  43  86 CALM      30.24S
N.O. LAKEFRONT CLEAR     51  47  86 E5        30.25R
N.O. DOWNTOWN* FAIR      55  45  67 CALM      30.24F
SLIDELL        CLEAR     39  36  89 CALM      30.25R
BATON ROUGE    PTCLDY    46  43  89 NE3       30.23R
BOOTHVILLE     CLEAR     54  50  86 E5        30.25S
BELLE CHASSE   CLEAR     42  39  89 CALM      30.24S
BOGALUSA*        N/A     40  37  91 CALM      30.28R
NEW ROADS*     CLOUDY    47  46  94 CALM      30.23R
GONZALES*      FAIR      46  46 100 CALM      30.22F
HAMMOND*       CLEAR     39  37  93 CALM      30.26R
HOUMA*         MOCLDY    47  47  97 CALM      30.23S FOG
PORT FOURCHON* MOSUNNY   63  52  67 E9        30.25S

$$

LAZ041-044-053-054-211100-
SOUTHWEST LOUISIANA

CITY           SKY/WX    TMP DP  RH WIND       PRES   REMARKS
LAKE CHARLES   CLOUDY    59  52  77 SE12      30.17R
LAFAYETTE      CLOUDY    55  49  80 VRB3      30.21S
PATTERSON      MOCLDY    55  48  76 SE6       30.24S
SALT POINT       N/A     57  51  80 E3        30.20F
NEW IBERIA     CLOUDY    55  50  83 SE7       30.21S
CHENAULT AIRPK NOT AVBL

$$

LAZ027-028-211100-
CENTRAL LOUISIANA

CITY           SKY/WX    TMP DP  RH WIND       PRES   REMARKS
FORT POLK      CLOUDY    57  50  78 SE6       30.17S
ALEXANDRIA INT CLOUDY    53  49  86 SE6       30.18S
ALEXANDRIA     LGT RAIN  50  48  93 CALM      30.19F

$$

LAZ001-002-211100-
NORTHWEST LOUISIANA

CITY           SKY/WX    TMP DP  RH WIND       PRES   REMARKS
SHREVEPORT     LGT RAIN  55  52  89 S10       30.17R
BARKSDALE AFB  PTCLDY    55  52  88 S8        30.17S
DTN SHREVEPORT CLOUDY    55  50  83 S7        30.17S

$$

LAZ014-016-211100-
NORTHEAST LOUISIANA

CITY           SKY/WX    TMP DP  RH WIND       PRES   REMARKS
MONROE         CLOUDY    51  50  96 CALM      30.22R
TALLULAH       MOCLDY    46  44  93 SE5       30.23F

$$




USA.gov is the U.S. government's official web portal to all federal, state and local government web resources and services.